星链-5780 (STARLINK-5780 )

导读

STARLINK-5780是美国太空探索技术公司(SpaceX)星链(Starlink)星座的卫星,于北京时间2023年6月23日8点发射,属于星链组网卫星,旨在为全球提供高速低延迟互联网服务,星链系统通过大规模低轨卫星组网,覆盖全球偏远地区,目前该卫星已在近地轨道服役近三年。

Basic Information
目录编号:
57150
目录名称:
STARLINK-5780
国际标识:
2023-090BB
轨道中心:
EARTH
卫星名称:
星链-5780
卫星全名:
星链-5780 (STARLINK-5780 )
卫星状态:
在轨 (已飞行1088 天)
发射日期:
2023-06-23 UTC
国别 :
美国 (US)
星等 :
--
Orbit Information
数据来源 国际轨道数据 AOE轨道数据
星历时间 2026-06-14T10:00:24+0800
1天前
查看轨道信息
2026-06-10T06:00:00+0800
5天前
查看轨道信息
半长轴 6861.195km 6861.186km
偏心率 0.0000947 0.0001115
轨道倾角 43.003° 42.999°
近地点辐角 257.124° 242.461°
升交点赤经 85.944° 109.477°
平近点角 102.951° 215.579°
近地点 482.408km 482.283km
远地点 483.708km 483.815km
周期 94.267分钟 94.267分钟
每日圈数 15.275772 15.275802
Detailed Information
固有亮度:
5
最大亮度:
2.4
卫星平台:
Starlink v1.5
覆盖范围:
全球
运营商:
太空探索技术公司
运营商所在国:
美国
制造商(研发单位):
太空探索技术公司
制造商所在国:
美国
使用方式:
暂无
Satellite Introduction
星链(Starlink)计划是由太空探索技术公司(SpaceX)提出的一个巨型低轨卫星互联网星座项目,计划在2019年至2024年间在太空搭建由约1.2万颗卫星组成的“星链”网络,其中1584颗将部署在地球上空550千米处的近地轨道,并从2020年开始工作。该卫星仍在工作。
2D Orbit Map
3D Orbit Map
Orbit Altitude Analysis Chart
Orbit Inclination Analysis Chart
Orbit Comprehensive Analysis Chart
View Comprehensive Chart